When you browse on this site, cookies collect data to enhance your experience and personalize the content and advertising you see.
Visit our Privacy Policy to learn more. By continuing to use the site, you agree to this use of cookies and data.
  • In Germany
  • List of Countries
  • For 7 days
  • Water Temperature
  • Weather Map
  • Weather Widgets
  • user-avatar
    Login

    Hourly Weather Oldebroek

    Today, 25 February, Tuesday

    Time Temperature Precipitation Wind Pressure Humidity
    00:00 +7°C° 0.1 mm 8 mps 749 mmHg 80%
    01:00 +5°C° 0 mm 7 mps 749 mmHg 79%
    02:00 +4°C° 0 mm 7 mps 749 mmHg 78%
    03:00 +3°C° 0 mm 6 mps 748 mmHg 78%
    04:00 +3°C° 0 mm 6 mps 748 mmHg 79%
    05:00 +3°C° 0 mm 6 mps 748 mmHg 80%
    06:00 +2°C° 0 mm 6 mps 748 mmHg 81%
    07:00 +3°C° 0.1 mm 7 mps 748 mmHg 78%
    08:00 +4°C° 0.1 mm 7 mps 748 mmHg 75%
    09:00 +4°C° 0.1 mm 8 mps 747 mmHg 72%
    10:00 +5°C° 0.1 mm 9 mps 747 mmHg 69%
    11:00 +5°C° 0.1 mm 9 mps 747 mmHg 66%
    12:00 +6°C° 0.1 mm 9 mps 747 mmHg 62%
    13:00 +5°C° 0.2 mm 9 mps 746 mmHg 65%
    14:00 +5°C° 0.2 mm 9 mps 746 mmHg 67%
    15:00 +4°C° 0.2 mm 8 mps 745 mmHg 70%
    16:00 +4°C° 0.1 mm 7 mps 745 mmHg 73%
    17:00 +3°C° 0.1 mm 6 mps 745 mmHg 76%
    18:00 +2°C° 0.1 mm 5 mps 745 mmHg 79%
    19:00 +1°C° 0 mm 4 mps 744 mmHg 80%
    20:00 +1°C° 0 mm 4 mps 743 mmHg 81%
    21:00 +2°C° 0 mm 3 mps 743 mmHg 82%
    22:00 +2°C° 0 mm 3 mps 742 mmHg 85%
    23:00 +1°C° 0 mm 4 mps 742 mmHg 88%

    Tomorrow, 26 February, Wednesday

    Time Temperature Precipitation Wind Pressure Humidity
    00:00 0°C° 0 mm 4 mps 742 mmHg 91%
    01:00 +1°C° 0.3 mm 3 mps 741 mmHg 92%
    02:00 +1°C° 0.3 mm 3 mps 741 mmHg 93%
    03:00 +1°C° 0.3 mm 3 mps 741 mmHg 94%
    04:00 +1°C° 0.2 mm 4 mps 741 mmHg 91%
    05:00 +1°C° 0.2 mm 4 mps 741 mmHg 88%
    06:00 +1°C° 0.2 mm 5 mps 741 mmHg 85%
    07:00 +2°C° 0.2 mm 5 mps 742 mmHg 82%
    08:00 +2°C° 0.2 mm 6 mps 743 mmHg 78%
    09:00 +3°C° 0.2 mm 7 mps 744 mmHg 75%
    10:00 +3°C° 0.3 mm 7 mps 744 mmHg 73%
    11:00 +4°C° 0.3 mm 8 mps 745 mmHg 70%
    12:00 +5°C° 0.3 mm 8 mps 746 mmHg 68%
    13:00 +4°C° 0.4 mm 8 mps 747 mmHg 69%
    14:00 +4°C° 0.4 mm 8 mps 747 mmHg 69%
    15:00 +4°C° 0.4 mm 8 mps 748 mmHg 70%
    16:00 +3°C° 0.1 mm 7 mps 748 mmHg 74%
    17:00 +2°C° 0.1 mm 6 mps 749 mmHg 77%
    18:00 +2°C° 0.1 mm 5 mps 749 mmHg 81%
    19:00 +1°C° 0 mm 5 mps 750 mmHg 81%
    20:00 +1°C° 0 mm 5 mps 750 mmHg 82%
    21:00 +1°C° 0 mm 4 mps 750 mmHg 83%
    22:00 +1°C° 0.1 mm 4 mps 751 mmHg 82%
    23:00 +1°C° 0.1 mm 4 mps 751 mmHg 82%

    Day after tomorrow, 27 February, Thursday

    Time Temperature Precipitation Wind Pressure Humidity
    00:00 +1°C° 0.1 mm 4 mps 751 mmHg 81%
    01:00 0°C° 0 mm 4 mps 751 mmHg 81%
    02:00 0°C° 0 mm 4 mps 751 mmHg 81%
    03:00 -1°C° 0 mm 5 mps 751 mmHg 82%
    04:00 -1°C° 0 mm 5 mps 750 mmHg 82%
    05:00 -1°C° 0 mm 5 mps 750 mmHg 82%
    06:00 -1°C° 0 mm 5 mps 750 mmHg 83%
    07:00 -1°C° 0.1 mm 6 mps 749 mmHg 85%
    08:00 -1°C° 0.1 mm 6 mps 748 mmHg 88%
    09:00 -1°C° 0.1 mm 6 mps 748 mmHg 90%
    10:00 -1°C° 0.3 mm 6 mps 747 mmHg 92%
    11:00 0°C° 0.3 mm 5 mps 747 mmHg 94%
    12:00 0°C° 0.3 mm 4 mps 746 mmHg 96%
    13:00 0°C° 1.1 mm 4 mps 746 mmHg 96%
    14:00 0°C° 1.1 mm 4 mps 745 mmHg 97%
    15:00 0°C° 1.1 mm 3 mps 745 mmHg 97%
    16:00 0°C° 0.7 mm 4 mps 746 mmHg 95%
    17:00 0°C° 0.7 mm 4 mps 746 mmHg 92%
    18:00 0°C° 0.7 mm 4 mps 747 mmHg 90%
    19:00 0°C° 0 mm 4 mps 748 mmHg 88%
    20:00 0°C° 0 mm 4 mps 749 mmHg 86%
    21:00 0°C° 0 mm 4 mps 749 mmHg 84%
    22:00 -1°C° 0 mm 4 mps 750 mmHg 85%
    23:00 -1°C° 0 mm 4 mps 751 mmHg 86%

    28 February, Friday

    Time Temperature Precipitation Wind Pressure Humidity
    00:00 -1°C° 0 mm 4 mps 752 mmHg 87%
    01:00 0°C° 0 mm 5 mps 752 mmHg 86%
    02:00 0°C° 0 mm 5 mps 753 mmHg 84%
    03:00 0°C° 0 mm 5 mps 754 mmHg 83%
    04:00 0°C° 0 mm 5 mps 754 mmHg 84%
    05:00 0°C° 0 mm 5 mps 755 mmHg 85%
    06:00 0°C° 0 mm 5 mps 756 mmHg 85%
    07:00 +1°C° 0 mm 5 mps 756 mmHg 82%
    08:00 +2°C° 0 mm 5 mps 756 mmHg 79%
    09:00 +3°C° 0 mm 6 mps 757 mmHg 76%
    10:00 +3°C° 0 mm 6 mps 757 mmHg 74%
    11:00 +3°C° 0 mm 6 mps 758 mmHg 71%
    12:00 +4°C° 0 mm 6 mps 758 mmHg 69%
    13:00 +5°C° 0 mm 5 mps 757 mmHg 69%
    14:00 +5°C° 0 mm 4 mps 757 mmHg 70%
    15:00 +5°C° 0 mm 4 mps 757 mmHg 70%
    16:00 +4°C° 0 mm 3 mps 756 mmHg 75%
    17:00 +3°C° 0 mm 3 mps 756 mmHg 80%
    18:00 +2°C° 0 mm 3 mps 756 mmHg 84%
    19:00 +2°C° 0 mm 3 mps 755 mmHg 85%
    20:00 +2°C° 0 mm 3 mps 755 mmHg 86%
    21:00 +1°C° 0 mm 3 mps 754 mmHg 87%
    22:00 0°C° 0 mm 4 mps 753 mmHg 87%
    23:00 +1°C° 0 mm 5 mps 752 mmHg 87%

    29 February, Saturday

    Time Temperature Precipitation Wind Pressure Humidity
    00:00 +1°C° 0 mm 6 mps 751 mmHg 87%
    01:00 +1°C° 0.1 mm 6 mps 749 mmHg 89%
    02:00 0°C° 0.1 mm 7 mps 748 mmHg 90%
    03:00 0°C° 0.1 mm 7 mps 746 mmHg 91%
    04:00 +2°C° 1.3 mm 7 mps 745 mmHg 93%
    05:00 +3°C° 1.3 mm 7 mps 744 mmHg 94%
    06:00 +3°C° 1.3 mm 7 mps 743 mmHg 96%
    07:00 +5°C° 0.4 mm 8 mps 741 mmHg 92%
    08:00 +6°C° 0.4 mm 8 mps 740 mmHg 88%
    09:00 +8°C° 0.4 mm 9 mps 739 mmHg 84%
    10:00 +7°C° 1 mm 8 mps 739 mmHg 82%
    11:00 +7°C° 1 mm 8 mps 739 mmHg 80%
    12:00 +6°C° 1 mm 7 mps 739 mmHg 79%
    13:00 +6°C° 0.4 mm 8 mps 740 mmHg 74%
    14:00 +5°C° 0.4 mm 8 mps 740 mmHg 70%
    15:00 +5°C° 0.4 mm 9 mps 741 mmHg 65%
    16:00 +4°C° 0 mm 8 mps 742 mmHg 67%
    17:00 +3°C° 0 mm 7 mps 742 mmHg 69%
    18:00 +2°C° 0 mm 6 mps 743 mmHg 71%
    19:00 +2°C° 0.1 mm 6 mps 743 mmHg 72%
    20:00 +2°C° 0.1 mm 6 mps 744 mmHg 73%
    21:00 +2°C° 0.1 mm 6 mps 744 mmHg 73%
    22:00 0°C° 0.1 mm 7 mps 744 mmHg 74%
    23:00 0°C° 0.1 mm 7 mps 745 mmHg 75%

    1 March, Sunday

    Time Temperature Precipitation Wind Pressure Humidity
    00:00 0°C° 0.1 mm 7 mps 745 mmHg 75%
    01:00 +1°C° 0.2 mm 6 mps 745 mmHg 77%
    02:00 +1°C° 0.2 mm 6 mps 746 mmHg 79%
    03:00 +1°C° 0.2 mm 6 mps 746 mmHg 80%
    04:00 +1°C° 0.1 mm 6 mps 746 mmHg 80%
    05:00 -1°C° 0.1 mm 6 mps 746 mmHg 80%
    06:00 -1°C° 0.1 mm 6 mps 746 mmHg 80%
    07:00 +1°C° 0.2 mm 6 mps 747 mmHg 82%
    08:00 0°C° 0.2 mm 7 mps 747 mmHg 84%
    09:00 0°C° 0.2 mm 7 mps 747 mmHg 86%
    10:00 +2°C° 0.4 mm 7 mps 747 mmHg 80%
    11:00 +3°C° 0.4 mm 7 mps 747 mmHg 73%
    12:00 +4°C° 0.4 mm 7 mps 748 mmHg 67%
    13:00 +4°C° 0.3 mm 7 mps 748 mmHg 65%
    14:00 +4°C° 0.3 mm 7 mps 748 mmHg 64%
    15:00 +4°C° 0.3 mm 6 mps 748 mmHg 62%
    16:00 +3°C° 0 mm 5 mps 748 mmHg 67%
    17:00 +3°C° 0 mm 4 mps 748 mmHg 73%
    18:00 +2°C° 0 mm 3 mps 748 mmHg 78%
    19:00 +1°C° 0 mm 4 mps 749 mmHg 80%
    20:00 0°C° 0 mm 4 mps 749 mmHg 82%
    21:00 0°C° 0 mm 4 mps 749 mmHg 84%
    22:00 0°C° 0 mm 4 mps 749 mmHg 86%
    23:00 -1°C° 0 mm 4 mps 749 mmHg 87%
    Show more